owner,sensor,date,latitude,longitude,vertical_datum,mass_concentration_of_oxygen_in_sea_water,qcFlag 
SCCF RECON,ioos:station:SCCF:18:1,2016-01-01T00:00:00Z,26.6955,-81.8138,2.17,7.33,1111122 
SCCF RECON,ioos:station:SCCF:18:1,2016-01-01T01:00:00Z,26.6955,-81.8138,2.22,7.29,1111122 
SCCF RECON,ioos:station:SCCF:18:1,2016-01-01T02:00:00Z,26.6955,-81.8138,2.24,7.22,1111122 
SCCF RECON,ioos:station:SCCF:18:1,2016-01-01T03:00:00Z,26.6955,-81.8138,2.212,7.28,1111122 
SCCF RECON,ioos:station:SCCF:18:1,2016-01-01T04:00:00Z,26.6955,-81.8138,2.14,7.05,1111122 
SCCF RECON,ioos:station:SCCF:18:1,2016-01-01T05:00:00Z,26.6955,-81.8138,2.06,6.87,1111122 
SCCF RECON,ioos:station:SCCF:18:1,2016-01-01T06:00:00Z,26.6955,-81.8138,2.02,6.94,1111122 
SCCF RECON,ioos:station:SCCF:18:1,2016-01-01T07:00:00Z,26.6955,-81.8138,1.99,6.62,1111122 
SCCF RECON,ioos:station:SCCF:18:1,2016-01-01T08:00:00Z,26.6955,-81.8138,1.96,6.56,1111122 
SCCF RECON,ioos:station:SCCF:18:1,2016-01-01T09:00:00Z,26.6955,-81.8138,1.94,6.25,1111122 
SCCF RECON,ioos:station:SCCF:18:1,2016-01-01T10:00:00Z,26.6955,-81.8138,1.96,6.26,1111122 
SCCF RECON,ioos:station:SCCF:18:1,2016-01-01T11:00:00Z,26.6955,-81.8138,2.02,6.25,1111122 
SCCF RECON,ioos:station:SCCF:18:1,2016-01-01T12:00:00Z,26.6955,-81.8138,2.05,6.45,1111122 
SCCF RECON,ioos:station:SCCF:18:1,2016-01-01T13:00:00Z,26.6955,-81.8138,2.08,6.43,1111122 
SCCF RECON,ioos:station:SCCF:18:1,2016-01-01T14:00:00Z,26.6955,-81.8138,2.07,6.5,1111122 
SCCF RECON,ioos:station:SCCF:18:1,2016-01-01T15:00:00Z,26.6955,-81.8138,2.055,6.53,1111122 
SCCF RECON,ioos:station:SCCF:18:1,2016-01-01T16:00:00Z,26.6955,-81.8138,2.016,6.45,1111122 
SCCF RECON,ioos:station:SCCF:18:1,2016-01-01T17:00:00Z,26.6955,-81.8138,1.96,6.44,1111122 
SCCF RECON,ioos:station:SCCF:18:1,2016-01-01T18:00:00Z,26.6955,-81.8138,1.903,6.41,1111122 
SCCF RECON,ioos:station:SCCF:18:1,2016-01-01T19:00:00Z,26.6955,-81.8138,1.891,6.12,1111122 
SCCF RECON,ioos:station:SCCF:18:1,2016-01-01T20:00:00Z,26.6955,-81.8138,1.9,6.14,1111122 
SCCF RECON,ioos:station:SCCF:18:1,2016-01-01T21:00:00Z,26.6955,-81.8138,1.94,6.24,1111122 
SCCF RECON,ioos:station:SCCF:18:1,2016-01-01T22:00:00Z,26.6955,-81.8138,2.01,6.69,1111122 
SCCF RECON,ioos:station:SCCF:18:1,2016-01-01T23:00:00Z,26.6955,-81.8138,2.08,6.26,1111122 
SCCF RECON,ioos:station:SCCF:18:1,2016-01-02T00:00:00Z,26.6955,-81.8138,2.13,6.1,1111122 
SCCF RECON,ioos:station:SCCF:18:1,2016-01-02T01:00:00Z,26.6955,-81.8138,2.19,6.6,1111122 
SCCF RECON,ioos:station:SCCF:18:1,2016-01-02T02:00:00Z,26.6955,-81.8138,2.23,6.89,1111122 
SCCF RECON,ioos:station:SCCF:18:1,2016-01-02T03:00:00Z,26.6955,-81.8138,2.24,6.69,1111122 
SCCF RECON,ioos:station:SCCF:18:1,2016-01-02T04:00:00Z,26.6955,-81.8138,2.2,6.79,1111122 
SCCF RECON,ioos:station:SCCF:18:1,2016-01-02T05:00:00Z,26.6955,-81.8138,2.13,6.46,1111122 
SCCF RECON,ioos:station:SCCF:18:1,2016-01-02T06:00:00Z,26.6955,-81.8138,2.07,5.97,1111122 
SCCF RECON,ioos:station:SCCF:18:1,2016-01-02T07:00:00Z,26.6955,-81.8138,2.031,6.0,1111122 
SCCF RECON,ioos:station:SCCF:18:1,2016-01-02T08:00:00Z,26.6955,-81.8138,1.99,5.89,1111122 
SCCF RECON,ioos:station:SCCF:18:1,2016-01-02T09:00:00Z,26.6955,-81.8138,1.957,6.09,1111122 
SCCF RECON,ioos:station:SCCF:18:1,2016-01-02T10:00:00Z,26.6955,-81.8138,1.929,5.91,1111122 
SCCF RECON,ioos:station:SCCF:18:1,2016-01-02T11:00:00Z,26.6955,-81.8138,1.929,5.81,1111122 
SCCF RECON,ioos:station:SCCF:18:1,2016-01-02T12:00:00Z,26.6955,-81.8138,1.94,5.85,1111122 
SCCF RECON,ioos:station:SCCF:18:1,2016-01-02T13:00:00Z,26.6955,-81.8138,2.0,6.03,1111122 
SCCF RECON,ioos:station:SCCF:18:1,2016-01-02T14:00:00Z,26.6955,-81.8138,2.059,5.96,1111122 
SCCF RECON,ioos:station:SCCF:18:1,2016-01-02T15:00:00Z,26.6955,-81.8138,2.07,6.08,1111122 
SCCF RECON,ioos:station:SCCF:18:1,2016-01-02T16:00:00Z,26.6955,-81.8138,2.031,6.31,1111122 
SCCF RECON,ioos:station:SCCF:18:1,2016-01-02T17:00:00Z,26.6955,-81.8138,1.965,6.33,1111122 
SCCF RECON,ioos:station:SCCF:18:1,2016-01-02T18:00:00Z,26.6955,-81.8138,1.9,6.0,1111122 
SCCF RECON,ioos:station:SCCF:18:1,2016-01-02T19:00:00Z,26.6955,-81.8138,1.86,6.32,1111122 
SCCF RECON,ioos:station:SCCF:18:1,2016-01-02T20:00:00Z,26.6955,-81.8138,1.84,6.59,1111122 
SCCF RECON,ioos:station:SCCF:18:1,2016-01-02T21:00:00Z,26.6955,-81.8138,1.829,6.82,1111122 
SCCF RECON,ioos:station:SCCF:18:1,2016-01-02T22:00:00Z,26.6955,-81.8138,1.86,6.53,1111122 
SCCF RECON,ioos:station:SCCF:18:1,2016-01-02T23:00:00Z,26.6955,-81.8138,1.93,6.58,1111122 
SCCF RECON,ioos:station:SCCF:18:1,2016-01-03T00:00:00Z,26.6955,-81.8138,2.001,6.57,1111122 
SCCF RECON,ioos:station:SCCF:18:1,2016-01-03T01:00:00Z,26.6955,-81.8138,2.06,6.64,1111122 
SCCF RECON,ioos:station:SCCF:18:1,2016-01-03T02:00:00Z,26.6955,-81.8138,2.11,6.59,1111122 
SCCF RECON,ioos:station:SCCF:18:1,2016-01-03T03:00:00Z,26.6955,-81.8138,2.15,6.57,1111122 
SCCF RECON,ioos:station:SCCF:18:1,2016-01-03T04:00:00Z,26.6955,-81.8138,2.15,6.71,1111122 
SCCF RECON,ioos:station:SCCF:18:1,2016-01-03T05:00:00Z,26.6955,-81.8138,2.1,6.85,1111122 
SCCF RECON,ioos:station:SCCF:18:1,2016-01-03T06:00:00Z,26.6955,-81.8138,2.03,6.55,1111122 
SCCF RECON,ioos:station:SCCF:18:1,2016-01-03T07:00:00Z,26.6955,-81.8138,1.98,6.23,1111122 
SCCF RECON,ioos:station:SCCF:18:1,2016-01-03T08:00:00Z,26.6955,-81.8138,1.934,6.27,1111122 
SCCF RECON,ioos:station:SCCF:18:1,2016-01-03T09:00:00Z,26.6955,-81.8138,1.892,6.44,1111122 
SCCF RECON,ioos:station:SCCF:18:1,2016-01-03T10:00:00Z,26.6955,-81.8138,1.84,6.39,1111122 
SCCF RECON,ioos:station:SCCF:18:1,2016-01-03T11:00:00Z,26.6955,-81.8138,1.81,6.62,1111122 
SCCF RECON,ioos:station:SCCF:18:1,2016-01-03T12:00:00Z,26.6955,-81.8138,1.801,6.44,1111122 
SCCF RECON,ioos:station:SCCF:18:1,2016-01-03T13:00:00Z,26.6955,-81.8138,1.81,6.38,1111122 
SCCF RECON,ioos:station:SCCF:18:1,2016-01-03T14:00:00Z,26.6955,-81.8138,1.86,6.33,1111122 
SCCF RECON,ioos:station:SCCF:18:1,2016-01-03T15:00:00Z,26.6955,-81.8138,1.93,6.37,1111122 
SCCF RECON,ioos:station:SCCF:18:1,2016-01-03T16:00:00Z,26.6955,-81.8138,1.962,6.3,1111122 
SCCF RECON,ioos:station:SCCF:18:1,2016-01-03T17:00:00Z,26.6955,-81.8138,1.97,6.48,1111122 
SCCF RECON,ioos:station:SCCF:18:1,2016-01-03T18:00:00Z,26.6955,-81.8138,1.961,6.71,1111122 
SCCF RECON,ioos:station:SCCF:18:1,2016-01-03T19:00:00Z,26.6955,-81.8138,1.93,6.6,1111122 
SCCF RECON,ioos:station:SCCF:18:1,2016-01-03T20:00:00Z,26.6955,-81.8138,1.87,6.42,1111122 
SCCF RECON,ioos:station:SCCF:18:1,2016-01-03T21:00:00Z,26.6955,-81.8138,1.82,6.34,1111122 
SCCF RECON,ioos:station:SCCF:18:1,2016-01-03T22:00:00Z,26.6955,-81.8138,1.84,6.0,1111122 
SCCF RECON,ioos:station:SCCF:18:1,2016-01-03T23:00:00Z,26.6955,-81.8138,1.92,6.62,1111122 
SCCF RECON,ioos:station:SCCF:18:1,2016-01-04T00:00:00Z,26.6955,-81.8138,2.01,6.46,1111122 
SCCF RECON,ioos:station:SCCF:18:1,2016-01-04T01:00:00Z,26.6955,-81.8138,2.06,6.48,1111122 
SCCF RECON,ioos:station:SCCF:18:1,2016-01-04T02:00:00Z,26.6955,-81.8138,2.08,6.55,1111122 
SCCF RECON,ioos:station:SCCF:18:1,2016-01-04T03:00:00Z,26.6955,-81.8138,2.129,6.57,1111122 
SCCF RECON,ioos:station:SCCF:18:1,2016-01-04T04:00:00Z,26.6955,-81.8138,2.15,6.63,1111122 
SCCF RECON,ioos:station:SCCF:18:1,2016-01-04T05:00:00Z,26.6955,-81.8138,2.124,6.62,1111122 
SCCF RECON,ioos:station:SCCF:18:1,2016-01-04T06:00:00Z,26.6955,-81.8138,2.05,6.62,1111122 
SCCF RECON,ioos:station:SCCF:18:1,2016-01-04T07:00:00Z,26.6955,-81.8138,1.972,6.28,1111122 
SCCF RECON,ioos:station:SCCF:18:1,2016-01-04T08:00:00Z,26.6955,-81.8138,1.926,6.68,1111122 
SCCF RECON,ioos:station:SCCF:18:1,2016-01-04T09:00:00Z,26.6955,-81.8138,1.9,6.42,1111122 
SCCF RECON,ioos:station:SCCF:18:1,2016-01-04T10:00:00Z,26.6955,-81.8138,1.86,6.5,1111122 
SCCF RECON,ioos:station:SCCF:18:1,2016-01-04T11:00:00Z,26.6955,-81.8138,1.817,6.62,1111122 
SCCF RECON,ioos:station:SCCF:18:1,2016-01-04T12:00:00Z,26.6955,-81.8138,1.8,6.58,1111122 
SCCF RECON,ioos:station:SCCF:18:1,2016-01-04T13:00:00Z,26.6955,-81.8138,1.807,6.43,1111122 
SCCF RECON,ioos:station:SCCF:18:1,2016-01-04T14:00:00Z,26.6955,-81.8138,1.83,6.39,1111122 
SCCF RECON,ioos:station:SCCF:18:1,2016-01-04T15:00:00Z,26.6955,-81.8138,1.88,6.26,1111122 
SCCF RECON,ioos:station:SCCF:18:1,2016-01-04T16:00:00Z,26.6955,-81.8138,1.912,6.47,1111122 
SCCF RECON,ioos:station:SCCF:18:1,2016-01-04T17:00:00Z,26.6955,-81.8138,1.93,6.57,1111122 
SCCF RECON,ioos:station:SCCF:18:1,2016-01-04T18:00:00Z,26.6955,-81.8138,1.92,6.63,1111122 
SCCF RECON,ioos:station:SCCF:18:1,2016-01-04T19:00:00Z,26.6955,-81.8138,1.91,6.63,1111122 
SCCF RECON,ioos:station:SCCF:18:1,2016-01-04T20:00:00Z,26.6955,-81.8138,1.89,7.05,1111122 
SCCF RECON,ioos:station:SCCF:18:1,2016-01-04T21:00:00Z,26.6955,-81.8138,1.877,6.92,1111122 
SCCF RECON,ioos:station:SCCF:18:1,2016-01-04T22:00:00Z,26.6955,-81.8138,1.88,6.57,1111122 
SCCF RECON,ioos:station:SCCF:18:1,2016-01-04T23:00:00Z,26.6955,-81.8138,1.92,6.95,1111122 
SCCF RECON,ioos:station:SCCF:18:1,2016-01-05T00:00:00Z,26.6955,-81.8138,1.97,7.01,1111122 
SCCF RECON,ioos:station:SCCF:18:1,2016-01-05T01:00:00Z,26.6955,-81.8138,2.02,6.79,1111122 
SCCF RECON,ioos:station:SCCF:18:1,2016-01-05T02:00:00Z,26.6955,-81.8138,2.08,6.77,1111122 
SCCF RECON,ioos:station:SCCF:18:1,2016-01-05T03:00:00Z,26.6955,-81.8138,2.13,7.07,1111122 
SCCF RECON,ioos:station:SCCF:18:1,2016-01-05T04:00:00Z,26.6955,-81.8138,2.16,7.01,1111122 
SCCF RECON,ioos:station:SCCF:18:1,2016-01-05T05:00:00Z,26.6955,-81.8138,2.17,6.9,1111122 
SCCF RECON,ioos:station:SCCF:18:1,2016-01-05T06:00:00Z,26.6955,-81.8138,2.12,6.79,1111122 
SCCF RECON,ioos:station:SCCF:18:1,2016-01-05T07:00:00Z,26.6955,-81.8138,2.041,6.88,1111122 
SCCF RECON,ioos:station:SCCF:18:1,2016-01-05T08:00:00Z,26.6955,-81.8138,2.0,6.8,1111122 
SCCF RECON,ioos:station:SCCF:18:1,2016-01-05T09:00:00Z,26.6955,-81.8138,1.96,6.62,1111122 
SCCF RECON,ioos:station:SCCF:18:1,2016-01-05T10:00:00Z,26.6955,-81.8138,1.91,6.63,1111122 
SCCF RECON,ioos:station:SCCF:18:1,2016-01-05T11:00:00Z,26.6955,-81.8138,1.85,6.79,1111122 
SCCF RECON,ioos:station:SCCF:18:1,2016-01-05T12:00:00Z,26.6955,-81.8138,1.79,6.75,1111122 
SCCF RECON,ioos:station:SCCF:18:1,2016-01-05T13:00:00Z,26.6955,-81.8138,1.75,6.73,1111122 
SCCF RECON,ioos:station:SCCF:18:1,2016-01-05T14:00:00Z,26.6955,-81.8138,1.711,6.64,1111122 
SCCF RECON,ioos:station:SCCF:18:1,2016-01-05T15:00:00Z,26.6955,-81.8138,1.71,6.73,1111122 
SCCF RECON,ioos:station:SCCF:18:1,2016-01-05T16:00:00Z,26.6955,-81.8138,1.72,6.6,1111122 
SCCF RECON,ioos:station:SCCF:18:1,2016-01-05T17:00:00Z,26.6955,-81.8138,1.75,7.35,1111122 
SCCF RECON,ioos:station:SCCF:18:1,2016-01-05T18:00:00Z,26.6955,-81.8138,1.78,7.47,1111122 
SCCF RECON,ioos:station:SCCF:18:1,2016-01-05T19:00:00Z,26.6955,-81.8138,1.78,7.83,1111122 
SCCF RECON,ioos:station:SCCF:18:1,2016-01-05T20:00:00Z,26.6955,-81.8138,1.76,7.29,1111122 
SCCF RECON,ioos:station:SCCF:18:1,2016-01-05T21:00:00Z,26.6955,-81.8138,1.729,7.5,1111122 
SCCF RECON,ioos:station:SCCF:18:1,2016-01-05T22:00:00Z,26.6955,-81.8138,1.721,7.49,1111122 
SCCF RECON,ioos:station:SCCF:18:1,2016-01-05T23:00:00Z,26.6955,-81.8138,1.73,7.65,1111122 
SCCF RECON,ioos:station:SCCF:18:1,2016-01-06T00:00:00Z,26.6955,-81.8138,1.79,7.62,1111122 
SCCF RECON,ioos:station:SCCF:18:1,2016-01-06T01:00:00Z,26.6955,-81.8138,1.831,7.81,1111122 
SCCF RECON,ioos:station:SCCF:18:1,2016-01-06T02:00:00Z,26.6955,-81.8138,1.88,7.87,1111122 
SCCF RECON,ioos:station:SCCF:18:1,2016-01-06T03:00:00Z,26.6955,-81.8138,1.905,8.07,1111122 
SCCF RECON,ioos:station:SCCF:18:1,2016-01-06T04:00:00Z,26.6955,-81.8138,1.94,7.99,1111122 
SCCF RECON,ioos:station:SCCF:18:1,2016-01-06T05:00:00Z,26.6955,-81.8138,1.93,7.82,1111122 
SCCF RECON,ioos:station:SCCF:18:1,2016-01-06T06:00:00Z,26.6955,-81.8138,1.91,7.69,1111122 
SCCF RECON,ioos:station:SCCF:18:1,2016-01-06T07:00:00Z,26.6955,-81.8138,1.869,7.66,1111122 
SCCF RECON,ioos:station:SCCF:18:1,2016-01-06T08:00:00Z,26.6955,-81.8138,1.82,7.41,1111122 
SCCF RECON,ioos:station:SCCF:18:1,2016-01-06T09:00:00Z,26.6955,-81.8138,1.752,7.45,1111122 
SCCF RECON,ioos:station:SCCF:18:1,2016-01-06T10:00:00Z,26.6955,-81.8138,1.72,7.43,1111122 
SCCF RECON,ioos:station:SCCF:18:1,2016-01-06T11:00:00Z,26.6955,-81.8138,1.69,7.38,1111122 
SCCF RECON,ioos:station:SCCF:18:1,2016-01-06T12:00:00Z,26.6955,-81.8138,1.666,7.39,1111122 
SCCF RECON,ioos:station:SCCF:18:1,2016-01-06T13:00:00Z,26.6955,-81.8138,1.64,7.45,1111122 
SCCF RECON,ioos:station:SCCF:18:1,2016-01-06T14:00:00Z,26.6955,-81.8138,1.62,7.31,1111122 
SCCF RECON,ioos:station:SCCF:18:1,2016-01-06T15:00:00Z,26.6955,-81.8138,1.66,7.39,1111122 
SCCF RECON,ioos:station:SCCF:18:1,2016-01-06T16:00:00Z,26.6955,-81.8138,1.71,7.58,1111122 
SCCF RECON,ioos:station:SCCF:18:1,2016-01-06T17:00:00Z,26.6955,-81.8138,1.77,7.88,1111122 
SCCF RECON,ioos:station:SCCF:18:1,2016-01-06T18:00:00Z,26.6955,-81.8138,1.8,7.94,1111122 
SCCF RECON,ioos:station:SCCF:18:1,2016-01-06T19:00:00Z,26.6955,-81.8138,1.838,8.08,1111122 
SCCF RECON,ioos:station:SCCF:18:1,2016-01-06T20:00:00Z,26.6955,-81.8138,1.88,8.3,1111122 
SCCF RECON,ioos:station:SCCF:18:1,2016-01-06T21:00:00Z,26.6955,-81.8138,1.91,8.4,1111122 
SCCF RECON,ioos:station:SCCF:18:1,2016-01-06T22:00:00Z,26.6955,-81.8138,1.91,8.41,1111122 
SCCF RECON,ioos:station:SCCF:18:1,2016-01-06T23:00:00Z,26.6955,-81.8138,1.93,8.34,1111122 
SCCF RECON,ioos:station:SCCF:18:1,2016-01-07T00:00:00Z,26.6955,-81.8138,1.96,8.45,1111122 
SCCF RECON,ioos:station:SCCF:18:1,2016-01-07T01:00:00Z,26.6955,-81.8138,2.033,8.52,1111122 
SCCF RECON,ioos:station:SCCF:18:1,2016-01-07T02:00:00Z,26.6955,-81.8138,2.09,8.54,1111122 
SCCF RECON,ioos:station:SCCF:18:1,2016-01-07T03:00:00Z,26.6955,-81.8138,2.13,8.52,1111122 
SCCF RECON,ioos:station:SCCF:18:1,2016-01-07T04:00:00Z,26.6955,-81.8138,2.17,8.65,1111122 
SCCF RECON,ioos:station:SCCF:18:1,2016-01-07T05:00:00Z,26.6955,-81.8138,2.228,8.73,1111122 
SCCF RECON,ioos:station:SCCF:18:1,2016-01-07T06:00:00Z,26.6955,-81.8138,2.258,8.79,1111122 
SCCF RECON,ioos:station:SCCF:18:1,2016-01-07T07:00:00Z,26.6955,-81.8138,2.23,8.72,1111122 
SCCF RECON,ioos:station:SCCF:18:1,2016-01-07T08:00:00Z,26.6955,-81.8138,2.15,7.89,1111122 
SCCF RECON,ioos:station:SCCF:18:1,2016-01-07T09:00:00Z,26.6955,-81.8138,2.06,7.98,1111122 
SCCF RECON,ioos:station:SCCF:18:1,2016-01-07T10:00:00Z,26.6955,-81.8138,2.001,7.83,1111122 
SCCF RECON,ioos:station:SCCF:18:1,2016-01-07T11:00:00Z,26.6955,-81.8138,1.96,7.78,1111122 
SCCF RECON,ioos:station:SCCF:18:1,2016-01-07T12:00:00Z,26.6955,-81.8138,1.91,7.68,1111122 
SCCF RECON,ioos:station:SCCF:18:1,2016-01-07T13:00:00Z,26.6955,-81.8138,1.86,7.66,1111122 
SCCF RECON,ioos:station:SCCF:18:1,2016-01-07T14:00:00Z,26.6955,-81.8138,1.82,7.67,1111122 
SCCF RECON,ioos:station:SCCF:18:1,2016-01-07T15:00:00Z,26.6955,-81.8138,1.83,7.63,1111122 
SCCF RECON,ioos:station:SCCF:18:1,2016-01-07T16:00:00Z,26.6955,-81.8138,1.9,7.77,1111122 
SCCF RECON,ioos:station:SCCF:18:1,2016-01-07T17:00:00Z,26.6955,-81.8138,1.971,7.72,1111122 
SCCF RECON,ioos:station:SCCF:18:1,2016-01-07T18:00:00Z,26.6955,-81.8138,2.02,7.83,1111122 
SCCF RECON,ioos:station:SCCF:18:1,2016-01-07T19:00:00Z,26.6955,-81.8138,2.07,7.94,1111122 
SCCF RECON,ioos:station:SCCF:18:1,2016-01-07T20:00:00Z,26.6955,-81.8138,2.118,8.12,1111122 
SCCF RECON,ioos:station:SCCF:18:1,2016-01-07T21:00:00Z,26.6955,-81.8138,2.13,8.18,1111122 
SCCF RECON,ioos:station:SCCF:18:1,2016-01-07T22:00:00Z,26.6955,-81.8138,2.1,7.91,1111122 
SCCF RECON,ioos:station:SCCF:18:1,2016-01-07T23:00:00Z,26.6955,-81.8138,2.07,8.0,1111122 
SCCF RECON,ioos:station:SCCF:18:1,2016-01-08T00:00:00Z,26.6955,-81.8138,2.08,7.92,1111122 
SCCF RECON,ioos:station:SCCF:18:1,2016-01-08T01:00:00Z,26.6955,-81.8138,2.11,7.97,1111122 
SCCF RECON,ioos:station:SCCF:18:1,2016-01-08T02:00:00Z,26.6955,-81.8138,2.17,7.96,1111122 
SCCF RECON,ioos:station:SCCF:18:1,2016-01-08T03:00:00Z,26.6955,-81.8138,2.24,8.01,1111122 
SCCF RECON,ioos:station:SCCF:18:1,2016-01-08T04:00:00Z,26.6955,-81.8138,2.3,8.22,1111122 
SCCF RECON,ioos:station:SCCF:18:1,2016-01-08T05:00:00Z,26.6955,-81.8138,2.342,8.31,1111122 
SCCF RECON,ioos:station:SCCF:18:1,2016-01-08T06:00:00Z,26.6955,-81.8138,2.388,8.42,1111122 
SCCF RECON,ioos:station:SCCF:18:1,2016-01-08T07:00:00Z,26.6955,-81.8138,2.419,8.41,1111122 
SCCF RECON,ioos:station:SCCF:18:1,2016-01-08T08:00:00Z,26.6955,-81.8138,2.39,8.23,1111122 
SCCF RECON,ioos:station:SCCF:18:1,2016-01-08T09:00:00Z,26.6955,-81.8138,2.292,7.62,1111122 
SCCF RECON,ioos:station:SCCF:18:1,2016-01-08T10:00:00Z,26.6955,-81.8138,2.194,7.85,1111122 
SCCF RECON,ioos:station:SCCF:18:1,2016-01-08T11:00:00Z,26.6955,-81.8138,2.14,7.73,1111122 
SCCF RECON,ioos:station:SCCF:18:1,2016-01-08T12:00:00Z,26.6955,-81.8138,2.086,7.43,1111122 
SCCF RECON,ioos:station:SCCF:18:1,2016-01-08T13:00:00Z,26.6955,-81.8138,2.021,7.44,1111122 
SCCF RECON,ioos:station:SCCF:18:1,2016-01-08T14:00:00Z,26.6955,-81.8138,1.966,7.18,1111122 
SCCF RECON,ioos:station:SCCF:18:1,2016-01-08T15:00:00Z,26.6955,-81.8138,1.94,7.37,1111122 
SCCF RECON,ioos:station:SCCF:18:1,2016-01-08T16:00:00Z,26.6955,-81.8138,1.98,7.02,1111122 
SCCF RECON,ioos:station:SCCF:18:1,2016-01-08T17:00:00Z,26.6955,-81.8138,2.07,7.41,1111122 
SCCF RECON,ioos:station:SCCF:18:1,2016-01-08T18:00:00Z,26.6955,-81.8138,2.149,7.38,1111122 
SCCF RECON,ioos:station:SCCF:18:1,2016-01-08T19:00:00Z,26.6955,-81.8138,2.2,7.35,1111122 
SCCF RECON,ioos:station:SCCF:18:1,2016-01-08T20:00:00Z,26.6955,-81.8138,2.25,7.65,1111122 
SCCF RECON,ioos:station:SCCF:18:1,2016-01-08T21:00:00Z,26.6955,-81.8138,2.29,7.76,1111122 
SCCF RECON,ioos:station:SCCF:18:1,2016-01-08T22:00:00Z,26.6955,-81.8138,2.278,7.79,1111122 
SCCF RECON,ioos:station:SCCF:18:1,2016-01-08T23:00:00Z,26.6955,-81.8138,2.21,7.48,1111122 
SCCF RECON,ioos:station:SCCF:18:1,2016-01-09T00:00:00Z,26.6955,-81.8138,2.14,7.36,1111122 
SCCF RECON,ioos:station:SCCF:18:1,2016-01-09T01:00:00Z,26.6955,-81.8138,2.11,7.31,1111122 
SCCF RECON,ioos:station:SCCF:18:1,2016-01-09T02:00:00Z,26.6955,-81.8138,2.1,7.22,1111122 
SCCF RECON,ioos:station:SCCF:18:1,2016-01-09T03:00:00Z,26.6955,-81.8138,2.15,7.21,1111122 
SCCF RECON,ioos:station:SCCF:18:1,2016-01-09T04:00:00Z,26.6955,-81.8138,2.22,7.18,1111122 
SCCF RECON,ioos:station:SCCF:18:1,2016-01-09T05:00:00Z,26.6955,-81.8138,2.3,7.31,1111122 
SCCF RECON,ioos:station:SCCF:18:1,2016-01-09T06:00:00Z,26.6955,-81.8138,2.35,7.54,1111122 
SCCF RECON,ioos:station:SCCF:18:1,2016-01-09T07:00:00Z,26.6955,-81.8138,2.39,7.43,1111122 
SCCF RECON,ioos:station:SCCF:18:1,2016-01-09T08:00:00Z,26.6955,-81.8138,2.4,7.53,1111122 
SCCF RECON,ioos:station:SCCF:18:1,2016-01-09T09:00:00Z,26.6955,-81.8138,2.31,7.21,1111122 
SCCF RECON,ioos:station:SCCF:18:1,2016-01-09T10:00:00Z,26.6955,-81.8138,2.22,7.04,1111122 
SCCF RECON,ioos:station:SCCF:18:1,2016-01-09T11:00:00Z,26.6955,-81.8138,2.15,7.08,1111122 
SCCF RECON,ioos:station:SCCF:18:1,2016-01-09T12:00:00Z,26.6955,-81.8138,2.1,7.02,1111122 
SCCF RECON,ioos:station:SCCF:18:1,2016-01-09T13:00:00Z,26.6955,-81.8138,2.05,6.86,1111122 
SCCF RECON,ioos:station:SCCF:18:1,2016-01-09T14:00:00Z,26.6955,-81.8138,1.992,6.71,1111122 
SCCF RECON,ioos:station:SCCF:18:1,2016-01-09T15:00:00Z,26.6955,-81.8138,1.94,6.54,1111122 
SCCF RECON,ioos:station:SCCF:18:1,2016-01-09T16:00:00Z,26.6955,-81.8138,1.9,6.4,1111122 
SCCF RECON,ioos:station:SCCF:18:1,2016-01-09T17:00:00Z,26.6955,-81.8138,1.93,6.45,1111122 
SCCF RECON,ioos:station:SCCF:18:1,2016-01-09T18:00:00Z,26.6955,-81.8138,2.019,6.69,1111122 
SCCF RECON,ioos:station:SCCF:18:1,2016-01-09T19:00:00Z,26.6955,-81.8138,2.11,6.76,1111122 
SCCF RECON,ioos:station:SCCF:18:1,2016-01-09T20:00:00Z,26.6955,-81.8138,2.161,6.59,1111122 
SCCF RECON,ioos:station:SCCF:18:1,2016-01-09T21:00:00Z,26.6955,-81.8138,2.2,6.76,1111122 
SCCF RECON,ioos:station:SCCF:18:1,2016-01-09T22:00:00Z,26.6955,-81.8138,2.239,6.74,1111122 
SCCF RECON,ioos:station:SCCF:18:1,2016-01-09T23:00:00Z,26.6955,-81.8138,2.24,6.85,1111122 
SCCF RECON,ioos:station:SCCF:18:1,2016-01-10T00:00:00Z,26.6955,-81.8138,2.248,6.76,1111122 
SCCF RECON,ioos:station:SCCF:18:1,2016-01-10T01:00:00Z,26.6955,-81.8138,2.23,7.05,1111122 
SCCF RECON,ioos:station:SCCF:18:1,2016-01-10T02:00:00Z,26.6955,-81.8138,2.265,6.65,1111122 
SCCF RECON,ioos:station:SCCF:18:1,2016-01-10T03:00:00Z,26.6955,-81.8138,2.317,6.97,1111122 
SCCF RECON,ioos:station:SCCF:18:1,2016-01-10T04:00:00Z,26.6955,-81.8138,2.38,7.0,1111122 
SCCF RECON,ioos:station:SCCF:18:1,2016-01-10T05:00:00Z,26.6955,-81.8138,2.446,7.43,1111122 
SCCF RECON,ioos:station:SCCF:18:1,2016-01-10T06:00:00Z,26.6955,-81.8138,2.502,7.56,1111122 
SCCF RECON,ioos:station:SCCF:18:1,2016-01-10T07:00:00Z,26.6955,-81.8138,2.55,7.62,1111122 
SCCF RECON,ioos:station:SCCF:18:1,2016-01-10T08:00:00Z,26.6955,-81.8138,2.57,7.66,1111122 
SCCF RECON,ioos:station:SCCF:18:1,2016-01-10T09:00:00Z,26.6955,-81.8138,2.52,7.5,1111122 
SCCF RECON,ioos:station:SCCF:18:1,2016-01-10T10:00:00Z,26.6955,-81.8138,2.44,7.15,1111122 
SCCF RECON,ioos:station:SCCF:18:1,2016-01-10T11:00:00Z,26.6955,-81.8138,2.362,7.07,1111122 
SCCF RECON,ioos:station:SCCF:18:1,2016-01-10T12:00:00Z,26.6955,-81.8138,2.31,6.89,1111122 
SCCF RECON,ioos:station:SCCF:18:1,2016-01-10T13:00:00Z,26.6955,-81.8138,2.25,6.73,1111122 
SCCF RECON,ioos:station:SCCF:18:1,2016-01-10T14:00:00Z,26.6955,-81.8138,2.18,6.53,1111122 
SCCF RECON,ioos:station:SCCF:18:1,2016-01-10T15:00:00Z,26.6955,-81.8138,2.169,6.3,1111122 
SCCF RECON,ioos:station:SCCF:18:1,2016-01-10T16:00:00Z,26.6955,-81.8138,2.11,6.54,1111122 
SCCF RECON,ioos:station:SCCF:18:1,2016-01-10T17:00:00Z,26.6955,-81.8138,2.09,6.68,1111122 
SCCF RECON,ioos:station:SCCF:18:1,2016-01-10T18:00:00Z,26.6955,-81.8138,2.139,6.35,1111122 
SCCF RECON,ioos:station:SCCF:18:1,2016-01-10T19:00:00Z,26.6955,-81.8138,2.19,6.33,1111122 
SCCF RECON,ioos:station:SCCF:18:1,2016-01-10T20:00:00Z,26.6955,-81.8138,2.25,6.12,1111122 
SCCF RECON,ioos:station:SCCF:18:1,2016-01-10T21:00:00Z,26.6955,-81.8138,2.29,6.29,1111122 
SCCF RECON,ioos:station:SCCF:18:1,2016-01-10T22:00:00Z,26.6955,-81.8138,2.31,6.17,1111122 
SCCF RECON,ioos:station:SCCF:18:1,2016-01-10T23:00:00Z,26.6955,-81.8138,2.251,6.29,1111122 
SCCF RECON,ioos:station:SCCF:18:1,2016-01-11T00:00:00Z,26.6955,-81.8138,2.19,6.64,1111122 
SCCF RECON,ioos:station:SCCF:18:1,2016-01-11T01:00:00Z,26.6955,-81.8138,2.139,6.51,1111122 
SCCF RECON,ioos:station:SCCF:18:1,2016-01-11T02:00:00Z,26.6955,-81.8138,2.09,6.61,1111122 
SCCF RECON,ioos:station:SCCF:18:1,2016-01-11T03:00:00Z,26.6955,-81.8138,2.05,6.54,1111122 
SCCF RECON,ioos:station:SCCF:18:1,2016-01-11T04:00:00Z,26.6955,-81.8138,2.01,6.4,1111122 
SCCF RECON,ioos:station:SCCF:18:1,2016-01-11T05:00:00Z,26.6955,-81.8138,2.05,6.46,1111122 
SCCF RECON,ioos:station:SCCF:18:1,2016-01-11T06:00:00Z,26.6955,-81.8138,2.15,6.28,1111122 
SCCF RECON,ioos:station:SCCF:18:1,2016-01-11T07:00:00Z,26.6955,-81.8138,2.25,5.98,1111122 
SCCF RECON,ioos:station:SCCF:18:1,2016-01-11T08:00:00Z,26.6955,-81.8138,2.29,6.13,1111122 
SCCF RECON,ioos:station:SCCF:18:1,2016-01-11T09:00:00Z,26.6955,-81.8138,2.3,6.22,1111122 
SCCF RECON,ioos:station:SCCF:18:1,2016-01-11T10:00:00Z,26.6955,-81.8138,2.27,6.35,1111122 
SCCF RECON,ioos:station:SCCF:18:1,2016-01-11T11:00:00Z,26.6955,-81.8138,2.19,6.33,1111122 
SCCF RECON,ioos:station:SCCF:18:1,2016-01-11T12:00:00Z,26.6955,-81.8138,2.122,6.21,1111122 
SCCF RECON,ioos:station:SCCF:18:1,2016-01-11T13:00:00Z,26.6955,-81.8138,2.058,6.08,1111122 
SCCF RECON,ioos:station:SCCF:18:1,2016-01-11T14:00:00Z,26.6955,-81.8138,2.008,6.29,1111122 
SCCF RECON,ioos:station:SCCF:18:1,2016-01-11T15:00:00Z,26.6955,-81.8138,1.96,6.42,1111122 
SCCF RECON,ioos:station:SCCF:18:1,2016-01-11T16:00:00Z,26.6955,-81.8138,1.9,6.49,1111122 
SCCF RECON,ioos:station:SCCF:18:1,2016-01-11T17:00:00Z,26.6955,-81.8138,1.84,6.52,1111122 
SCCF RECON,ioos:station:SCCF:18:1,2016-01-11T18:00:00Z,26.6955,-81.8138,1.801,6.46,1111122 
SCCF RECON,ioos:station:SCCF:18:1,2016-01-11T19:00:00Z,26.6955,-81.8138,1.851,6.42,1111122 
SCCF RECON,ioos:station:SCCF:18:1,2016-01-11T20:00:00Z,26.6955,-81.8138,1.93,6.56,1111122 
SCCF RECON,ioos:station:SCCF:18:1,2016-01-11T21:00:00Z,26.6955,-81.8138,1.99,6.77,1111122 